Location: Piotrkow Trybunalski
(51.4000°N, 19.6830°E)
Time: 14:15:31
(UTC+02:00)

Explorer 7 - Pass Details

Date: 01 February 2023
Orbit: 478 x 656 km, 50.3° (Epoch: 01 April)

Event Time Altitude Azimuth Distance (km) Brightness Sun altitude
Rises 19:00:50 0° 279° (W) 2,922 11.9 -23.5°
Maximum altitude 19:06:31 14° 224° (SW) 1,819 9.9 -24.3°
Drops below altitude 10° 19:08:51 10° 195° (SSW) 2,061 9.8 -24.7°
Enters shadow 19:10:40 - 179° (S) 2,492 10.1 -25.0°
